Date String (YYYY-MM-DD hh:mm:ss) UTC,Instrument flags,Ambient pressure (hPa),Sample flow (lpm),Bypass flow (lpm),Sample temperature (°C),Ambient temperature (°C),ASC tube jacket temperature (°C),LED temperature (°C),Box temperature (°C),Sample RH (%),Span deviation,Mass concentration (μg/m³),Mass concentration (μg/m³),Mass concentration (μg/m³)
DateTimeUTC,F1_M11,P_M11,Q1_M11,Q2_M11,T1_M11,T2_M11,T3_M11,T4_M11,T5_M11,U1_M11,ZSPAN_M11,X0_M11,X2_M11,X1_M11
2022-08-15 17:00:00,,0829.5,4.99,0.00,30.3,27.8,00.0,39.1,31.7,32.4,0000.0,0008.56,0003.57,0003.25
2022-08-15 17:01:00,,0829.5,5.00,0.00,30.3,28.0,00.0,39.0,31.8,32.4,0000.0,0008.63,0003.54,0003.23
2022-08-15 17:02:00,,0829.5,5.01,0.00,30.3,28.2,00.0,39.0,31.8,32.0,0000.0,0007.78,0003.54,0003.22
2022-08-15 17:03:00,,0829.5,5.01,0.00,30.3,28.3,00.0,39.0,31.8,32.3,0000.0,0007.76,0003.56,0003.22
2022-08-15 17:04:00,,0829.5,5.00,0.00,30.3,28.5,00.0,39.0,31.9,31.4,0000.0,0007.64,0003.51,0003.20
2022-08-15 17:05:00,,0829.5,5.00,0.00,30.3,28.6,00.0,39.0,31.9,31.5,0000.0,0007.70,0003.52,0003.20
2022-08-15 17:06:00,,0829.5,5.01,0.00,30.3,28.7,00.0,39.0,32.0,32.1,0000.0,0007.85,0003.52,0003.21
2022-08-15 17:07:00,,0829.6,4.99,0.00,30.3,28.8,00.0,39.0,32.0,31.8,0000.0,0007.82,0003.52,0003.20
2022-08-15 17:08:00,,0829.6,5.00,0.00,30.4,28.9,00.0,39.0,32.0,31.9,0000.0,0008.04,0003.49,0003.19
2022-08-15 17:09:00,,0829.5,5.02,0.00,30.4,28.4,00.0,39.0,31.9,32.5,0000.0,0007.51,0003.46,0003.18
2022-08-15 17:10:00,,0829.5,4.98,0.00,30.3,27.8,00.0,38.9,31.7,32.1,0000.0,0007.48,0003.45,0003.17
2022-08-15 17:11:00,,0829.5,5.01,0.00,30.2,27.5,00.0,38.9,31.6,31.8,0000.0,0006.93,0003.44,0003.16
2022-08-15 17:12:00,,0829.5,5.01,0.00,30.1,27.5,00.0,38.9,31.5,32.2,0000.0,0007.60,0003.44,0003.17
2022-08-15 17:13:00,,0829.5,4.99,0.00,30.0,27.6,00.0,38.8,31.6,32.5,0000.0,0007.59,0003.45,0003.18
2022-08-15 17:14:00,,0829.5,5.01,0.00,30.0,27.8,00.0,38.8,31.6,32.8,0000.0,0007.58,0003.46,0003.17
2022-08-15 17:15:00,,0829.5,4.98,0.00,30.0,28.0,00.0,38.8,31.7,32.9,0000.0,0007.66,0003.50,0003.18
2022-08-15 17:16:00,,0829.4,5.00,0.00,30.0,28.1,00.0,38.8,31.7,33.0,0000.0,0007.73,0003.53,0003.19
2022-08-15 17:17:00,,0829.5,5.00,0.00,30.0,28.3,00.0,38.8,31.7,33.2,0000.0,0007.55,0003.53,0003.19
2022-08-15 17:18:00,,0829.5,5.00,0.00,30.0,28.4,00.0,38.8,31.8,33.3,0000.0,0007.43,0003.54,0003.20
2022-08-15 17:19:00,,0829.5,5.00,0.00,30.1,28.6,00.0,38.8,31.8,32.7,0000.0,0006.87,0003.54,0003.19
2022-08-15 17:20:00,,0829.6,5.00,0.00,30.1,28.7,00.0,38.8,31.9,32.9,0000.0,0006.86,0003.56,0003.20
2022-08-15 17:21:00,,0829.5,5.00,0.00,30.1,28.8,00.0,38.8,31.9,33.1,0000.0,0007.03,0003.59,0003.22
2022-08-15 17:22:00,,0829.6,5.00,0.00,30.1,28.8,00.0,38.8,31.9,33.2,0000.0,0007.15,0003.60,0003.24
2022-08-15 17:23:00,,0829.6,4.99,0.00,30.1,28.3,00.0,38.8,31.8,32.9,0000.0,0005.98,0003.62,0003.25
2022-08-15 17:24:00,,0829.5,5.02,0.00,30.1,27.7,00.0,38.7,31.6,33.1,0000.0,0005.85,0003.63,0003.27
2022-08-15 17:25:00,,0829.6,4.99,0.00,30.0,27.5,00.0,38.7,31.5,33.2,0000.0,0005.77,0003.63,0003.29
2022-08-15 17:26:00,,0829.6,5.00,0.00,29.9,27.6,00.0,38.7,31.5,33.4,0000.0,0005.80,0003.64,0003.32
2022-08-15 17:27:00,,0829.5,5.00,0.00,29.9,27.7,00.0,38.7,31.5,34.3,0000.0,0005.72,0003.65,0003.33
2022-08-15 17:28:00,,0829.6,4.98,0.00,29.9,27.8,00.0,38.6,31.5,34.7,0000.0,0005.63,0003.63,0003.33
2022-08-15 17:29:00,,0829.5,5.01,0.00,29.9,28.0,00.0,38.6,31.6,34.9,0000.0,0005.67,0003.66,0003.34
2022-08-15 17:30:00,,0829.5,5.00,0.00,30.0,28.2,00.0,38.6,31.7,34.0,0000.0,0005.74,0003.70,0003.37
2022-08-15 17:31:00,,0829.5,5.00,0.00,30.0,28.3,00.0,38.6,31.7,33.6,0000.0,0005.87,0003.72,0003.38
2022-08-15 17:32:00,,0829.5,5.00,0.00,30.1,28.5,00.0,38.7,31.8,33.4,0000.0,0005.94,0003.75,0003.39
2022-08-15 17:33:00,,0829.6,4.99,0.00,30.1,28.6,00.0,38.7,31.8,33.3,0000.0,0005.86,0003.78,0003.39
2022-08-15 17:34:00,,0829.5,5.00,0.00,30.2,28.7,00.0,38.7,31.9,33.5,0000.0,0005.98,0003.79,0003.39
2022-08-15 17:35:00,,0829.5,4.99,0.00,30.2,28.8,00.0,38.7,31.9,33.4,0000.0,0005.93,0003.79,0003.39
2022-08-15 17:36:00,,0829.5,5.00,0.00,30.2,28.5,00.0,38.7,31.8,33.5,0000.0,0006.03,0003.82,0003.40
2022-08-15 17:37:00,,0829.5,5.00,0.00,30.2,27.9,00.0,38.7,31.6,33.3,0000.0,0005.97,0003.81,0003.41
2022-08-15 17:38:00,,0829.6,5.00,0.00,30.1,27.6,00.0,38.7,31.6,33.2,0000.0,0006.08,0003.80,0003.42
2022-08-15 17:39:00,,0829.5,4.99,0.00,30.0,27.5,00.0,38.6,31.5,33.2,0000.0,0007.23,0003.83,0003.44
2022-08-15 17:40:00,,0829.5,5.01,0.00,29.9,27.6,00.0,38.6,31.5,33.4,0000.0,0007.27,0003.84,0003.44
2022-08-15 17:41:00,,0829.5,4.99,0.00,29.9,27.8,00.0,38.6,31.5,33.5,0000.0,0007.24,0003.83,0003.45
2022-08-15 17:42:00,,0829.5,5.01,0.00,29.9,28.0,00.0,38.6,31.6,33.5,0000.0,0007.08,0003.81,0003.46
2022-08-15 17:43:00,,0829.5,5.00,0.00,29.9,28.1,00.0,38.6,31.6,33.5,0000.0,0006.97,0003.80,0003.48
2022-08-15 17:44:00,,0829.5,4.99,0.00,29.9,28.3,00.0,38.6,31.6,33.6,0000.0,0006.94,0003.80,0003.49
2022-08-15 17:45:00,,0829.5,5.00,0.00,30.0,28.4,00.0,38.7,31.7,33.4,0000.0,0006.98,0003.80,0003.51
2022-08-15 17:46:00,,0829.6,5.00,0.00,30.0,28.6,00.0,38.7,31.8,33.6,0000.0,0007.16,0003.85,0003.53
2022-08-15 17:47:00,,0829.5,4.99,0.00,30.0,28.7,00.0,38.7,31.8,33.5,0000.0,0007.32,0003.87,0003.55
2022-08-15 17:48:00,,0829.5,5.00,0.00,30.0,28.7,00.0,38.7,31.8,33.5,0000.0,0007.51,0003.91,0003.57
2022-08-15 17:49:00,,0829.5,5.02,0.00,30.0,28.3,00.0,38.7,31.7,33.6,0000.0,0007.50,0003.93,0003.58
2022-08-15 17:50:00,,0829.5,4.98,0.00,30.0,27.7,00.0,38.6,31.5,34.6,0000.0,0006.92,0003.96,0003.59
2022-08-15 17:51:00,,0829.5,5.01,0.00,30.0,27.5,00.0,38.6,31.5,35.3,0000.0,0007.75,0004.01,0003.60
2022-08-15 17:52:00,,0829.5,4.99,0.00,30.1,27.5,00.0,38.6,31.6,34.8,0000.0,0008.44,0004.06,0003.62
2022-08-15 17:53:00,,0829.5,5.01,0.00,30.3,27.6,00.0,38.6,31.7,34.3,0000.0,0009.25,0004.07,0003.62
2022-08-15 17:54:00,,0829.5,4.99,0.00,30.4,27.8,00.0,38.6,31.7,33.8,0000.0,0009.32,0004.09,0003.63
2022-08-15 17:55:00,,0829.5,5.00,0.00,30.5,28.0,00.0,38.6,31.7,33.7,0000.0,0009.36,0004.10,0003.64
2022-08-15 17:56:00,,0829.5,5.00,0.00,30.5,28.1,00.0,38.7,31.8,33.8,0000.0,0009.34,0004.10,0003.65
2022-08-15 17:57:00,,0829.5,5.01,0.00,30.5,28.3,00.0,38.7,31.8,33.7,0000.0,0009.35,0004.11,0003.65
2022-08-15 17:58:00,,0829.5,5.00,0.00,30.5,28.5,00.0,38.8,31.8,33.8,0000.0,0009.38,0004.14,0003.66
2022-08-15 17:59:00,,0829.5,5.00,0.00,30.6,28.6,00.0,38.8,31.9,33.9,0000.0,0009.29,0004.14,0003.67
